Ketchikan, AK

4:42 PM AKST on December 12, 2018 (GMT -0900)
Ketchikan International

Weather History for PAKT - October, 2018

Change the Weather History Date:

Thursday, October 25, 2018

  Actual Average Record
Temperature  
Mean Temperature 50 °F -  
Max Temperature 54 °F 50 °F 61 °F (1979)
Min Temperature 48 °F 38 °F 24 °F (1991)
Degree Days  
Heating Degree Days 14    
Moisture  
Dew Point 46 °F    
Average Humidity 82    
Maximum Humidity 89    
Minimum Humidity 66    
Precipitation  
Precipitation 0.14 in - - ()
Sea Level Pressure  
Sea Level Pressure 29.65 in    
Wind  
Wind Speed 15 mph (SE)    
Max Wind Speed 20 mph    
Max Gust Speed 32 mph    
Visibility 8 miles    
Events Rain    
Averages and records for this station are not official NWS values.
T = Trace of Precipitation, MM = Missing Value Source: NWS Daily Summary

Daily Weather History Graph

Daily Weather History Graph

Search for Another Location

Airport or City:

Astronomy

Oct. 25, 2018 Rise Set
Actual Time 7:37 AM AKDT 5:23 PM AKDT
Civil Twilight 6:59 AM AKDT 6:01 PM AKDT
Nautical Twilight 6:16 AM AKDT 6:43 PM AKDT
Astronomical Twilight 5:34 AM AKDT 7:26 PM AKDT
Moon 6:26 PM AKDT (10/25) 8:32 AM AKDT (10/25)
Length of Visible Light 11h 01m
Length of Day
9h 45m
Full, 99% of the Moon is Illuminated
Oct 25
Full
Oct 31
Last Quarter
Nov 7
New
Nov 15
First Quarter
Nov 22
Full

Hourly Weather History & Observations

Time (AKDT) Temp. Dew Point Humidity Pressure Visibility Wind Dir Wind Speed Gust Speed Precip Events Conditions
12:53 AM 51.1 °F 46.9 °F 86% 29.39 in 8.0 mi SE 17.3 mph 27.6 mph 0.02 in Rain Light Rain
1:53 AM 53.1 °F 48.9 °F 86% 29.42 in 7.0 mi SE 19.6 mph 28.8 mph 0.02 in Rain Light Rain
2:53 AM 53.1 °F 48.0 °F 83% 29.44 in 8.0 mi SE 19.6 mph 28.8 mph 0.00 in   Overcast
3:53 AM 52.0 °F 48.0 °F 86% 29.48 in 4.0 mi SE 19.6 mph 28.8 mph 0.02 in Rain Light Rain
4:53 AM 52.0 °F 48.0 °F 86% 29.49 in 5.0 mi SE 16.1 mph 23.0 mph 0.03 in Rain Light Rain
5:53 AM 51.1 °F 48.0 °F 89% 29.52 in 9.0 mi SSE 11.5 mph 20.7 mph 0.01 in   Overcast
6:08 AM 51.1 °F 46.0 °F 83% 29.53 in 5.0 mi SE 19.6 mph 32.2 mph 0.01 in Rain Light Rain
6:12 AM 51.8 °F 46.4 °F 82% 29.53 in 6.0 mi SE 18.4 mph 32.2 mph N/A Rain Rain
6:53 AM 50.0 °F 46.4 °F 87% 29.57 in 6.0 mi SE 9.2 mph - N/A Rain Light Rain
7:53 AM 48.2 °F 44.6 °F 87% 29.62 in 8.0 mi SE 15.0 mph - N/A Rain Light Rain
8:53 AM 48.2 °F 44.6 °F 87% 29.65 in 10.0 mi ESE 15.0 mph - N/A   Overcast
9:53 AM 48.2 °F 44.6 °F 87% 29.70 in 10.0 mi ESE 17.3 mph - N/A   Overcast
10:53 AM 50.0 °F 44.1 °F 80% 29.73 in 10.0 mi SE 15.0 mph - N/A   Overcast
11:53 AM 52.0 °F 45.0 °F 77% 29.76 in 10.0 mi SE 16.1 mph 25.3 mph N/A   Overcast
12:53 PM 52.0 °F 46.0 °F 80% 29.78 in 10.0 mi SE 11.5 mph - 0.00 in   Overcast
1:53 PM 53.6 °F 46.4 °F 77% 29.79 in 10.0 mi SSE 12.7 mph 21.9 mph N/A   Overcast
2:53 PM 53.6 °F 46.4 °F 77% 29.80 in 8.0 mi SE 15.0 mph 28.8 mph N/A   Overcast
3:53 PM 51.8 °F 48.2 °F 88% 29.79 in 7.0 mi SE 13.8 mph 21.9 mph N/A Rain Light Rain
4:53 PM 51.8 °F 46.4 °F 82% 29.78 in 9.0 mi SE 11.5 mph - N/A   Overcast
5:53 PM 50.0 °F 45.0 °F 83% 29.77 in 9.0 mi SSE 9.2 mph - 0.01 in Rain Light Rain
6:53 PM 48.9 °F 45.0 °F 86% 29.75 in 10.0 mi South 8.1 mph - 0.03 in   Overcast
7:53 PM 50.0 °F 44.1 °F 80% 29.75 in 10.0 mi South 5.8 mph - 0.00 in   Overcast
8:53 PM 51.1 °F 43.0 °F 74% 29.73 in 10.0 mi South 9.2 mph - N/A   Overcast
9:53 PM 51.1 °F 41.0 °F 68% 29.71 in 10.0 mi SSE 10.4 mph - N/A   Overcast
10:53 PM 50.0 °F 42.1 °F 74% 29.68 in 10.0 mi Variable 6.9 mph - N/A   Overcast
11:53 PM 51.1 °F 39.9 °F 66% 29.64 in 10.0 mi SE 5.8 mph - N/A   Mostly Cloudy